Location: Songkhla
(7.2000°N, 100.6000°E)
Time: 20:48:16
(UTC+07:00)

ISS - Visible Passes

Search period start: 04 October 2022 00:00
Search period end: 14 October 2022 00:00
Orbit: 415 x 419 km, 51.6° (Epoch: 04 October)

Date Brightness Start Highest point End Pass type
(mag) Time Alt. Az. Time Alt. Az. Time Alt. Az.
08 Oct -1.5 18:43:04 10° NE 18:43:52 11° NE 18:43:52 11° NE visible
09 Oct -3.3 19:29:03 10° NW 19:32:03 58° W 19:32:03 58° W visible
10 Oct -3.6 18:40:54 10° NNW 18:44:09 49° NE 18:47:23 10° SE visible
11 Oct -0.6 19:30:56 10° W 19:32:25 12° SW 19:33:54 10° SSW visible
12 Oct -1.5 18:41:16 10° WNW 18:44:11 27° SW 18:47:05 10° S visible
